Race Coverage Navigation

TS # 10 / Tuba City, AZ  2019

 


TS STATS
TS Distance 75.01 
Total Distance 677.88 
Miles To Go 2392.4 
TS Climbing 628 
Total Climbing
TS  Elevation
TS  Net Elevation 978 
Map Filename Open Map 
Directions Filename  
Latitude 36.12 
Longitude -111.23 
Google Map  TimeStation Map 


TS Arrival Data
Arr Ord  #/Name Arrival DT TS Dst Avg This TS Avg Overall Ascending
 1 491 - BOURREAU JACQUES  06/14/2019 21:06 75.01  12.36  8.85 
 2 563 - Team Nico Ultracycling - In Fight against Cancer   06/14/2019 13:14 75.01  8.51  9.85 
 3 R116 - Philippe May  06/14/2019 11:36 75.01  11.69  9.94 
 4 R110 - James Golding  06/14/2019 11:14 75.01  8.95  10 
 5 607 - Sabine Bird (Team Bean)  06/14/2019 11:21 75.01  7.59  10.07 
 6 605 - Christian Echavarria  06/14/2019 11:17 75.01  6.89  10.13 
 7 R117 - ROGIE (Roger Foote)  06/14/2019 9:32 75.01  12.5  10.25 
 8 527 - TALABARDON (Herve Talabardon)  06/14/2019 10:30 75.01  8.82  10.27 
 9 424 - Team i RON man Veterans supporting Veterans  06/14/2019 10:09 75.01  10.47  10.33 
 10 424 - Team i RON man Veterans supporting Veterans  06/14/2019 10:10 75.01  10.47  10.33 
 11 R115 - Kym Louie  06/14/2019 8:49 75.01  9.28  10.34 
 12 R112 - John Hoopingarner  06/14/2019 8:56 75.01  14.29  10.35 
 13 R121 - Ironmae (Rosecler Costa)  06/14/2019 8:38 75.01  7.54  10.37 
 14 R105 - 2nd Chance Racing (Craig Johnson)  06/14/2019 8:40 75.01  9.87  10.4 
 15 R119 - Team BlueLine (Martha Hall)  06/14/2019 8:16 75.01  11.11  10.43 
 16 R114 - Krishna Prakash  06/14/2019 8:13 75.01  14.57  10.46 
 17 621 - Themsen Ultracycling (Jacob Themsen)  06/14/2019 8:57 75.01  5.36  10.47 
 18 R122 - Kirk Gentle  06/14/2019 7:32 75.01  11.39  10.56 
 19 608 - Elin Starup  06/14/2019 4:58 75.01  11.6  11.12 
 20 399 - Valerio Zamboni  06/14/2019 4:31 75.01  11.17  11.31 
 21 618 - GREGORY ROBINSON  06/14/2019 3:44 75.01  13.85  11.39 
 22 R103 - Chris Davies  06/14/2019 2:57 75.01  9.2  11.41 
 23 611 - Marcelo Soares " MIXIRICA "  06/14/2019 2:51 75.01  10.95  11.58 
 24 610 - Kabir Rachure  06/14/2019 2:43 75.01  10.84  11.61 
 25 510 - John C. Tarlton  06/14/2019 2:33 75.01  15.36  11.67 
 26 R84 - James Jason Ingels  06/14/2019 1:42 75.01  18.99  11.67 
 27 539 - Kari Rouvinen  06/14/2019 0:41 75.01  16.13  12.05 
 28 R120 - Team Next Step (Peter Pedersen)  06/13/2019 23:24 75.01  14.61  12.1 
 29 R104 - Team everve Christian (Christian Beichel)  06/13/2019 22:41 75.01  14.8  12.29 
 30 411 - Geoff Brunner  06/13/2019 23:35 75.01  17.11  12.32 
 31 367 - Daniela Genovesi  06/13/2019 23:05 75.01  16.92  12.33 
 32 568 - Alexandra Meixner  06/13/2019 22:32 75.01  11.72  12.45 
 33 559 - Team Martin RAAM 2019 (Martin Bergmeister)  06/13/2019 22:52 75.01  14.2  12.45 
 34 161 - Seana Hogan  06/13/2019 21:30 75.01  10.79  12.7 
 35 R106 - Damaceleste.com (Valentina Tanzi)  06/13/2019 20:34 75.01  16.31  12.73 
 36 416 - Leah Goldstein  06/13/2019 21:15 75.01  16.61  12.75 
 37 604 - Chieko Ozawa  06/13/2019 20:54 75.01  15.15  12.83 
 38 615 - Philipp Amhof  06/13/2019 20:25 75.01  11.34  12.99 
 39 620 - Team Jefferson (Allan Jefferson)  06/13/2019 18:37 75.01  13.52  13.45 
 40 623 - Ultra Paka Racing Team (Daniel Polman)  06/13/2019 17:50 75.01  15.52  13.64 
 41 603 - Alan Bradley  06/13/2019 17:54 75.01  14.15  13.69 
 42 R124 - Andres Rodriguez  06/13/2019 16:18 75.01  13.89  13.84 
 43 T210 - Bike Wine Team  06/17/2019 15:54 75.01  16.07  13.91 
 44 622 - Thomas Odom-Team Kyle Pease Foundation  06/13/2019 16:53 75.01  19.07  13.91 
 45 R209 - Workhorses  06/13/2019 15:47 75.01  16.37  13.92 
 46 442 - Joe Barr  06/13/2019 17:12 75.01  17.65  13.92 
 47 R111 - Jennifer Orr  06/13/2019 15:48 75.01  15.36  13.97 
 48 T409 - Serpentine Golden Girls  06/17/2019 15:36 75.01  15.9  14.04 
 49 R201 - IN OUR PRIME  06/13/2019 15:01 75.01  10.09  14.17 
 50 T200 - AIR RELAX GoPro TEAM BRASIL  06/17/2019 14:43 75.01  5.94  14.21 
 51 329 - Peter Oyler  06/13/2019 16:15 75.01  15.26  14.23 
 52 R203 - Mike 'n' Jay Giretto con Amici  06/13/2019 14:36 75.01  18.52  14.29 
 53 T203 - JPsDuo  06/17/2019 14:19 75.01  16.49  14.34 
 54 529 - Isa Pulver  06/13/2019 14:53 75.01  17.72  14.48 
 55 349 - Mark Pattinson  06/13/2019 15:08 75.01  16.07  14.56 
 56 T205 - Prevent Breast Cancer powered by Endomag  06/17/2019 13:03 75.01  17.38  14.75 
 57 288 - Dave Haase  06/13/2019 14:25 75.01  18.07  14.8 
 58 617 - SOLO.kiwi (Craig Harper)  06/13/2019 13:36 75.01  13.98  14.94 
 59 609 - Jakob Olsen  06/13/2019 13:23 75.01  17.38  15.05 
 60 T208 - Team Machine  06/17/2019 12:08 75.01  17.44  15.06 
 61 612 - Markus K. Brandl  06/13/2019 12:46 75.01  12.64  15.24 
 62 T207 - Team Life Time  06/17/2019 11:04 75.01  14.33  15.42 
 63 R402 - SUWOS  06/13/2019 10:10 75.01  15  15.72 
 64 T801 - Mind Over Matter  06/17/2019 10:36 75.01  18  15.73 
 65 T417 - Team4RAAM 2019 powered by TGW Living Logistics  06/17/2019 9:52 75.01  16.37  15.98 
 66 T402 - EA/WFP RAAM Team  06/17/2019 9:12 75.01  20.93  16.14 
 67 T413 - TEAM BRASIL - SKIPPER  06/17/2019 9:13 75.01  16.43  16.2 
 68 T806 - Team SuperMarrow  06/17/2019 9:11 75.01  17.11  16.3 
 69 T204 - Lucan CRC  06/17/2019 7:57 75.01  18  16.58 
 70 T415 - TEAM FIRE VELO 935  06/17/2019 7:52 75.01  17.24  16.76 
 71 T405 - High Rollers  06/17/2019 7:37 75.01  15.68  16.79 
 72 R205 - Team OB2  06/13/2019 6:40 75.01  20  17.15 
 73 T206 - Project Linear Acceleration  06/17/2019 6:33 75.01  17.11  17.18 
 74 T414 - Brazil Nuts  06/17/2019 6:50 75.01  24.33  17.19 
 75 T410 - Soap-Aid  06/17/2019 6:39 75.01  17.18  17.24 
 76 T803 - Team EndoPark  06/17/2019 6:47 75.01  18  17.27 
 77 279 - Marko Baloh  06/13/2019 7:52 75.01  17.86  17.28 
 78 T202 - Integra Medical - BAA Racing  06/17/2019 6:00 75.01  15.9  17.4 
 79 T403 - EKJ Denmark  06/17/2019 5:54 75.01  18.22  17.52 
 80 R200 - EY Legacy Builders 2019  06/13/2019 5:42 75.01  18  17.61 
 81 R400 - HTX Velo Femme  06/13/2019 5:26 75.01  20  17.67 
 82 T804 - Team FSHD Skyland Trail  06/17/2019 4:48 75.01  16.37  18.2 
 83 T418 - The Opportunists  06/17/2019 4:37 75.01  20.09  18.25 
 84 T400 - Cantastic4  06/17/2019 4:16 75.01  17.93  18.27 
 85 R401 - San Diego Sports Medicine/Zoca  06/13/2019 3:34 75.01  19.65  18.56 
 86 T808 - Antonia's Friends 2019  06/17/2019 4:05 75.01  22.06  18.59 
 87 T408 - Radeln-fuer-Kinder (Cycling-for-Kids)  06/17/2019 3:36 75.01  21.43  18.67 
 88 T406 - Operation Walk Midwest  06/17/2019 3:34 75.01  20.18  18.67 
 89 T416 - Team Rotary Raams Polio  06/17/2019 3:28 75.01  20.64  18.81 
 90 T802 - Scorchers  06/17/2019 3:16 75.01  18.83  18.96 
 91 377 - Christoph Strasser  06/13/2019 4:11 75.01  21.64  19.08 
 92 T807 - Team ZOE International  06/17/2019 2:26 75.01  21.03  19.46 
 93 T412 - Team Aspect  06/17/2019 2:00 75.01  23.32  19.57 
 94 T407 - Julian Becker   06/17/2019 1:34 75.01  21.53  19.77 
 95 T805 - Team Oceanside  06/17/2019 1:38 75.01  21.13  19.9 
 96 T201 - EAT WELL  06/17/2019 0:30 75.01  20.84  20.25 
 97 R403 - Team Viasat-Denver  06/13/2019 0:17 75.01  22.06  20.38 
 98 T404 - Gentlemen of speed  06/16/2019 23:41 75.01  18.91  20.89 
 99 R404 - Team Viasat - Carlsbad  06/12/2019 22:30 75.01  23.69  21.52 
 100 T401 - Data Techniques powered by Networks Centre  06/16/2019 22:30 75.01  21.33  21.65 
 101 T800 - Backstedt Racing Project 14  06/16/2019 21:58 75.01  22.39  22.24 
 102 T411 - team alpha - tischlerei groemmer  06/16/2019 21:45 75.01  22.39  22.3